Terminal Aerodrome Forecast
Issued by NWS Raleigh/Durham, NC

Home | Current Version | Previous Version | Text Only | Print | Product List | Glossary On
Versions: 1 2 3 4 5 6 7 8 9 10 11 12 13 14 15 16 17 18 19 20 21 22 23 24 25 26 27 28 29 30 31 32 33 34 35 36 37 38
000
FTUS42 KRAH 271720
TAFFAY
TAF
KFAY 271720Z 2718/2818 21013KT P6SM BKN040
     FM280000 18007KT P6SM BKN250
     FM280900 21008KT P6SM BKN015
     FM281400 20005KT P6SM BKN025=

USA.gov is the U.S. government's official web portal to all federal, state and local government web resources and services.